#timestamp,LO_Frequency,Hit 
1501498815.1,286047084.9,N
1501498835.9,286047085.7,N
1501498855.7,286047085.6,N
1501498875.5,286047083.2,N
1501498895.4,286047083.3,N
1501498915.2,286047083.5,N
1501498935.0,286047084.3,N
1501498935.9,286047084.3,N
1501498955.8,286047081.9,N
1501498975.6,286047082.6,N
1501498995.4,286047082.7,N
1501499015.3,286047082.7,N
1501499035.1,286047080.5,N
1501499036.0,286047080.5,N
1501499055.8,286047081.0,N
1501499075.6,286047081.2,N
1501499095.5,286047080.8,N
1501499115.3,286047080.8,N
1501499135.1,286047078.3,N
1501499155.9,286047078.6,N
1501499175.7,286047078.6,N
1501499195.5,286047078.8,N
1501499215.4,286047076.5,N
1501499235.2,286047077.1,N
1501499255.0,286047076.8,N
1501499255.9,286047076.8,N
1501499275.8,286047077.8,N
1501499295.6,286047077.7,N
1501499315.4,286047076.2,N
1501499335.3,286047076.0,N
1501499355.1,286047076.1,N
1501499356.0,286047076.1,N
1501499375.8,286047075.7,N
1501499395.6,286047076.4,N
1501499415.5,286047074.3,N
1501499435.3,286047074.6,N
1501499455.1,286047072.3,N
1501499475.9,286047072.0,N
1501499495.7,286047070.1,N
1501499515.5,286047070.2,N
1501499535.4,286047070.1,N
1501499555.2,286047070.3,N
1501499575.0,286047071.4,N
1501499575.9,286047071.4,N
1501499595.8,286047068.6,N
1501499615.6,286047069.2,N
1501499635.4,286047069.4,N
1501499655.3,286047069.6,N
1501499675.1,286047067.0,N
1501499676.0,286047067.0,N
1501499695.8,286047067.0,N
1501499715.6,286047067.2,N
1501499735.5,286047068.3,N
1501499755.3,286047065.5,N
1501499775.1,286047065.9,N
1501499795.9,286047065.6,N
1501499815.7,286047066.8,N
1501499835.5,286047064.0,N
1501499855.4,286047063.8,N
1501499875.2,286047064.1,N
1501499895.0,286047063.9,N
1501499895.9,286047063.9,N
1501499915.8,286047064.7,N
1501499935.6,286047065.1,N
1501499955.4,286047065.2,N
1501499975.3,286047062.4,N
1501499995.1,286047062.8,N
1501499996.0,286047062.8,N
1501500015.8,286047063.1,N
1501500035.6,286047060.8,N
1501500055.5,286047060.8,N
1501500075.3,286047060.7,N
1501500095.1,286047060.9,N
1501500115.9,286047058.9,N
1501500135.7,286047059.0,N
1501500155.5,286047059.7,N
1501500175.4,286047059.5,N
1501500195.2,286047057.3,N
1501500215.0,286047057.3,N
1501500215.9,286047057.3,N
1501500235.8,286047057.7,N
1501500255.6,286047057.3,N
1501500275.4,286047057.5,N
1501500295.2,286047058.6,N
1501500315.1,286047057.0,N
1501500316.0,286047057.0,N
1501500335.8,286047054.1,N
1501500355.6,286047056.7,N
1501500375.5,286047057.2,N
1501500395.3,286047054.6,N
1501500415.1,286047054.3,N
1501500435.9,286047054.3,N
1501500455.7,286047054.7,N
1501500475.5,286047052.6,N
1501500495.4,286047053.7,N
1501500515.2,286047051.0,N
1501500535.0,286047052.1,N
1501500535.9,286047052.1,N
1501500555.8,286047051.7,N
1501500575.6,286047052.4,N
1501500595.4,286047049.8,N
1501500615.2,286047049.4,N
1501500635.1,286047050.6,N
1501500636.0,286047050.6,N
1501500655.8,286047049.3,N
1501500675.6,286047050.3,N
1501500695.5,286047048.3,N
1501500715.3,286047049.2,N
1501500735.1,286047048.6,N
1501500755.9,286047046.1,N
1501500775.7,286047046.6,N
1501500795.5,286047047.4,N
1501500815.4,286047044.7,N
1501500835.2,286047044.7,N
1501500855.0,286047044.9,N
1501500855.9,286047044.9,N
1501500875.8,286047044.7,N
1501500895.6,286047046.0,N
1501500915.4,286047043.0,N
1501500935.2,286047043.1,N
1501500955.1,286047041.3,N
1501500956.0,286047041.3,N
1501500975.8,286047041.7,N
1501500995.6,286047041.5,N
1501501015.5,286047042.5,N
1501501035.3,286047041.9,N
1501501055.1,286047041.4,N
1501501075.9,286047041.7,N
1501501095.7,286047044.3,N
1501501115.5,286047041.8,N
1501501135.4,286047039.8,N
1501501155.2,286047040.2,N
1501501175.0,286047038.3,N
1501501175.9,286047038.3,N
1501501195.8,286047039.0,N
1501501215.6,286047037.0,N
1501501235.4,286047037.7,N
1501501255.2,286047036.5,N
1501501275.1,286047037.3,N
1501501276.0,286047037.3,N
1501501295.8,286047036.6,N
1501501315.6,286047037.3,N
1501501335.5,286047037.2,N
1501501355.3,286047037.2,N
1501501375.1,286047038.0,N
1501501395.9,286047035.3,N
1501501415.7,286047035.3,N
1501501435.5,286047038.0,N
1501501455.4,286047035.8,N
1501501475.2,286047036.1,N
1501501495.0,286047035.8,N
1501501495.9,286047035.8,N
1501501515.8,286047033.5,N
1501501535.6,286047033.3,N
1501501555.4,286047033.5,N
1501501575.2,286047033.3,N
1501501595.1,286047034.1,N
1501501596.0,286047034.1,N
1501501615.8,286047034.3,N
1501501635.6,286047034.3,N
1501501655.5,286047034.7,N
1501501675.3,286047034.2,N
1501501695.1,286047034.8,N
1501501715.9,286047031.9,N
1501501735.7,286047031.8,N
1501501755.5,286047032.6,N
1501501775.4,286047033.1,N
1501501795.2,286047031.4,N
1501501815.0,286047030.8,N
1501501815.9,286047030.8,N
1501501835.8,286047031.6,N
1501501855.6,286047028.9,N
1501501875.4,286047028.9,N
1501501895.2,286047028.8,N
1501501915.1,286047029.0,N
1501501916.0,286047029.0,N
1501501935.8,286047029.1,N
1501501955.6,286047028.9,N
1501501975.5,286047025.6,N
1501501995.3,286047025.9,N
1501502015.1,286047028.1,N
1501502035.9,286047027.9,N
1501502055.7,286047028.4,N
1501502075.5,286047025.4,N
1501502095.4,286047024.1,N
1501502115.2,286047026.7,N
1501502135.0,286047023.8,N
1501502135.9,286047023.8,N
1501502155.8,286047023.9,N
1501502175.6,286047023.9,N
1501502195.4,286047024.5,N
1501502215.2,286047024.6,N
1501502235.1,286047022.5,N
1501502236.0,286047022.5,N
1501502255.8,286047022.2,N
1501502275.6,286047022.6,N
1501502295.5,286047022.9,N
1501502315.3,286047023.0,N
1501502335.1,286047023.1,N
1501502355.9,286047023.2,N
1501502375.7,286047023.2,N
1501502395.5,286047020.7,N
